Tracking 29892 objects as of 21-Nov-2024
HD Live streaming from Space Station
objects crossing your sky now

CZ-6A DEB

Track CZ-6A DEB now!
10-day predictions


NORAD ID: 56586
Int'l Code: 2022-151ADJ
Perigee: 661.7 km
Apogee: 776.7 km
Inclination: 98.7 °
Period: 99.0 minutes
Semi major axis: 7090 km
RCS: Unknown
Launch date: November 11, 2022
Source: People's Republic of China (PRC)
Launch site: Taiyaun Space Center, China (TSC)

Note: This is SATELLITE DEBRIS
Your satellite tracking list
Your tracking list is empty




NASA's NSSDC Master Catalog

Two Line Element Set (TLE):
1 56586U 22151ADJ 24324.52187650  .00021070  00000-0  47659-2 0  9993
2 56586  98.6741 350.7180 0081121 272.6274  86.5637 14.54164189 94421
Source of the keplerian elements: AFSPC